When you browse on this site, cookies collect data to enhance your experience and personalize the content and advertising you see.
Visit our Privacy Policy to learn more. By continuing to use the site, you agree to this use of cookies and data.

Hourly Weather Asuan

Today, 11 July, Saturday

Time Temperature Precipitation Wind Pressure Humidity
00:00 +34°C° 0 mm 3 mps 739 mmHg 22%
01:00 +33°C° 0 mm 4 mps 739 mmHg 22%
02:00 +32°C° 0 mm 4 mps 739 mmHg 23%
03:00 +32°C° 0 mm 4 mps 739 mmHg 24%
04:00 +30°C° 0 mm 4 mps 739 mmHg 25%
05:00 +30°C° 0 mm 4 mps 739 mmHg 25%
06:00 +33°C° 0 mm 5 mps 739 mmHg 23%
07:00 +35°C° 0 mm 5 mps 739 mmHg 20%
08:00 +38°C° 0 mm 6 mps 740 mmHg 18%
09:00 +40°C° 0 mm 6 mps 740 mmHg 15%
10:00 +41°C° 0 mm 6 mps 740 mmHg 13%
11:00 +44°C° 0 mm 6 mps 740 mmHg 11%
12:00 +45°C° 0 mm 7 mps 739 mmHg 10%
13:00 +46°C° 0 mm 8 mps 738 mmHg 9%
14:00 +48°C° 0 mm 8 mps 738 mmHg 8%
15:00 +46°C° 0 mm 8 mps 737 mmHg 9%
16:00 +46°C° 0 mm 7 mps 737 mmHg 9%
17:00 +45°C° 0 mm 6 mps 736 mmHg 10%
18:00 +42°C° 0 mm 6 mps 737 mmHg 12%
19:00 +40°C° 0 mm 5 mps 737 mmHg 14%
20:00 +37°C° 0 mm 5 mps 737 mmHg 16%
21:00 +38°C° 0 mm 6 mps 738 mmHg 17%
22:00 +36°C° 0 mm 6 mps 738 mmHg 18%
23:00 +36°C° 0 mm 7 mps 738 mmHg 19%

Tomorrow, 12 July, Sunday

Time Temperature Precipitation Wind Pressure Humidity
00:00 +35°C° 0 mm 7 mps 738 mmHg 19%
01:00 +35°C° 0 mm 7 mps 737 mmHg 20%
02:00 +34°C° 0 mm 6 mps 737 mmHg 21%
03:00 +33°C° 0 mm 6 mps 737 mmHg 22%
04:00 +33°C° 0 mm 6 mps 737 mmHg 23%
05:00 +32°C° 0 mm 5 mps 737 mmHg 23%
06:00 +34°C° 0 mm 6 mps 738 mmHg 22%
07:00 +36°C° 0 mm 7 mps 738 mmHg 20%
08:00 +39°C° 0 mm 8 mps 738 mmHg 18%
09:00 +40°C° 0 mm 7 mps 738 mmHg 16%
10:00 +43°C° 0 mm 7 mps 738 mmHg 14%
11:00 +45°C° 0 mm 6 mps 738 mmHg 12%
12:00 +45°C° 0 mm 6 mps 737 mmHg 11%
13:00 +46°C° 0 mm 6 mps 736 mmHg 10%
14:00 +46°C° 0 mm 6 mps 735 mmHg 9%
15:00 +46°C° 0 mm 6 mps 735 mmHg 9%
16:00 +46°C° 0 mm 6 mps 735 mmHg 9%
17:00 +46°C° 0 mm 6 mps 734 mmHg 9%
18:00 +44°C° 0 mm 6 mps 735 mmHg 10%
19:00 +40°C° 0 mm 6 mps 735 mmHg 12%
20:00 +37°C° 0 mm 5 mps 736 mmHg 13%
21:00 +36°C° 0 mm 6 mps 736 mmHg 14%
22:00 +36°C° 0 mm 6 mps 736 mmHg 15%
23:00 +35°C° 0 mm 6 mps 736 mmHg 16%

Day after tomorrow, 13 July, Monday

Time Temperature Precipitation Wind Pressure Humidity
00:00 +34°C° 0 mm 6 mps 736 mmHg 17%
01:00 +33°C° 0 mm 5 mps 735 mmHg 18%
02:00 +32°C° 0 mm 5 mps 735 mmHg 18%
03:00 +32°C° 0 mm 5 mps 735 mmHg 20%
04:00 +30°C° 0 mm 5 mps 735 mmHg 21%
05:00 +30°C° 0 mm 5 mps 735 mmHg 22%
06:00 +33°C° 0 mm 5 mps 735 mmHg 21%
07:00 +34°C° 0 mm 5 mps 736 mmHg 20%
08:00 +36°C° 0 mm 6 mps 736 mmHg 19%
09:00 +39°C° 0 mm 5 mps 736 mmHg 16%
10:00 +41°C° 0 mm 5 mps 736 mmHg 14%
11:00 +42°C° 0 mm 4 mps 735 mmHg 12%
12:00 +43°C° 0 mm 4 mps 735 mmHg 11%
13:00 +44°C° 0 mm 4 mps 734 mmHg 10%
14:00 +45°C° 0 mm 4 mps 734 mmHg 9%
15:00 +45°C° 0 mm 4 mps 733 mmHg 9%
16:00 +45°C° 0 mm 5 mps 733 mmHg 9%
17:00 +45°C° 0 mm 5 mps 733 mmHg 9%
18:00 +42°C° 0 mm 5 mps 733 mmHg 9%
19:00 +40°C° 0 mm 5 mps 734 mmHg 10%
20:00 +37°C° 0 mm 5 mps 734 mmHg 10%
21:00 +36°C° 0 mm 5 mps 734 mmHg 11%
22:00 +35°C° 0 mm 5 mps 735 mmHg 11%
23:00 +34°C° 0 mm 5 mps 735 mmHg 12%

14 July, Tuesday

Time Temperature Precipitation Wind Pressure Humidity
00:00 +34°C° 0 mm 5 mps 735 mmHg 13%
01:00 +33°C° 0 mm 5 mps 735 mmHg 14%
02:00 +33°C° 0 mm 5 mps 735 mmHg 15%
03:00 +32°C° 0 mm 5 mps 735 mmHg 16%
04:00 +30°C° 0 mm 4 mps 735 mmHg 17%
05:00 +30°C° 0 mm 4 mps 735 mmHg 18%
06:00 +33°C° 0 mm 4 mps 736 mmHg 16%
07:00 +35°C° 0 mm 5 mps 736 mmHg 15%
08:00 +37°C° 0 mm 5 mps 737 mmHg 14%
09:00 +38°C° 0 mm 3 mps 736 mmHg 12%
10:00 +40°C° 0 mm 2 mps 736 mmHg 11%
11:00 +38°C° 0 mm 0 mps 736 mmHg 10%
12:00 +42°C° 0 mm 1 mps 736 mmHg 9%
13:00 +43°C° 0 mm 2 mps 735 mmHg 8%
14:00 +45°C° 0 mm 2 mps 735 mmHg 7%
15:00 +45°C° 0 mm 3 mps 734 mmHg 7%
16:00 +44°C° 0 mm 3 mps 734 mmHg 7%
17:00 +44°C° 0 mm 3 mps 734 mmHg 8%
18:00 +42°C° 0 mm 3 mps 735 mmHg 9%
19:00 +39°C° 0 mm 3 mps 735 mmHg 10%
20:00 +36°C° 0 mm 2 mps 735 mmHg 12%
21:00 +36°C° 0 mm 3 mps 736 mmHg 13%
22:00 +36°C° 0 mm 5 mps 736 mmHg 15%
23:00 +35°C° 0 mm 6 mps 736 mmHg 17%

15 July, Wednesday

Time Temperature Precipitation Wind Pressure Humidity
00:00 +35°C° 0 mm 6 mps 736 mmHg 17%
01:00 +34°C° 0 mm 6 mps 736 mmHg 17%
02:00 +34°C° 0 mm 6 mps 736 mmHg 17%
03:00 +33°C° 0 mm 5 mps 736 mmHg 17%
04:00 +32°C° 0 mm 4 mps 736 mmHg 17%
05:00 +31°C° 0 mm 3 mps 737 mmHg 17%
06:00 +34°C° 0 mm 4 mps 737 mmHg 15%
07:00 +36°C° 0 mm 4 mps 737 mmHg 13%
08:00 +38°C° 0 mm 4 mps 738 mmHg 11%
09:00 +41°C° 0 mm 4 mps 738 mmHg 10%
10:00 +42°C° 0 mm 3 mps 738 mmHg 10%
11:00 +43°C° 0 mm 2 mps 738 mmHg 9%
12:00 +45°C° 0 mm 2 mps 737 mmHg 8%
13:00 +45°C° 0 mm 3 mps 736 mmHg 8%
14:00 +46°C° 0 mm 3 mps 736 mmHg 7%
15:00 +47°C° 0 mm 4 mps 736 mmHg 7%
16:00 +47°C° 0 mm 4 mps 736 mmHg 8%
17:00 +47°C° 0 mm 5 mps 736 mmHg 8%
18:00 +45°C° 0 mm 6 mps 736 mmHg 9%
19:00 +42°C° 0 mm 6 mps 736 mmHg 10%
20:00 +40°C° 0 mm 6 mps 737 mmHg 11%
21:00 +39°C° 0 mm 6 mps 737 mmHg 12%
22:00 +37°C° 0 mm 5 mps 737 mmHg 13%
23:00 +37°C° 0 mm 5 mps 737 mmHg 14%

16 July, Thursday

Time Temperature Precipitation Wind Pressure Humidity
00:00 +36°C° 0 mm 5 mps 737 mmHg 15%
01:00 +35°C° 0 mm 5 mps 737 mmHg 16%
02:00 +35°C° 0 mm 5 mps 736 mmHg 17%
03:00 +34°C° 0 mm 4 mps 737 mmHg 20%
04:00 +33°C° 0 mm 4 mps 737 mmHg 22%
05:00 +33°C° 0 mm 4 mps 737 mmHg 24%
06:00 +35°C° 0 mm 5 mps 737 mmHg 22%
07:00 +38°C° 0 mm 6 mps 737 mmHg 20%
08:00 +41°C° 0 mm 7 mps 737 mmHg 18%
09:00 +42°C° 0 mm 6 mps 737 mmHg 16%
10:00 +45°C° 0 mm 5 mps 737 mmHg 14%
11:00 +45°C° 0 mm 3 mps 737 mmHg 12%
12:00 +46°C° 0 mm 3 mps 736 mmHg 11%
13:00 +46°C° 0 mm 3 mps 735 mmHg 10%
14:00 +48°C° 0 mm 4 mps 735 mmHg 9%
15:00 +48°C° 0 mm 4 mps 735 mmHg 9%
16:00 +48°C° 0 mm 5 mps 734 mmHg 9%
17:00 +47°C° 0 mm 5 mps 734 mmHg 9%
18:00 +45°C° 0 mm 6 mps 735 mmHg 11%
19:00 +42°C° 0 mm 6 mps 735 mmHg 13%
20:00 +40°C° 0 mm 6 mps 735 mmHg 15%
21:00 +39°C° 0 mm 6 mps 736 mmHg 16%
22:00 +37°C° 0 mm 5 mps 736 mmHg 18%
23:00 +36°C° 0 mm 5 mps 736 mmHg 19%
Show more